Location: Aula-Vintri
(58.3875°N, 22.4322°E)
Time: 02:45:19
(UTC+00:00)

STARLINK-29 - Pass Details

Date: 13 October 2019
Orbit: 438 x 448 km, 53.0° (Epoch: 20 November)

Event Time Altitude Azimuth Distance (km) Brightness Sun altitude
Rises 17:49:21 0° 258° (WSW) 2,434 8.0 -18.7°
Reaches altitude 10° 17:51:35 10° 249° (WSW) 1,566 6.7 -19.0°
Maximum altitude 17:54:47 34° 184° (S) 759 4.2 -19.4°
Enters shadow 17:54:48 34° 183° (S) 759 4.2 -19.4°
